DAL1299 KIAH-KPHX

Flight info

Callsign DAL1299
Flight time N/A
Altitude 34000
Route PITZZ5 CRGER ELP DRRVR PINNG1
Aircraft A321/M-SDE3FGHIRWY/LB1

Departure

Time 2026-05-04 18:17
Airport George Bush Intercontinental Airport (KIAH)

Arrival

Time N/A
Airport Phoenix Sky Harbor International Airport (KPHX)
Time Latitude Longitude Altitude Speed Heading
2026-05-04 17:37 29.98817 -95.34887 107 ft 0 kts 269°
2026-05-04 17:53 29.98818 -95.34871 106 ft 4 kts 269°
2026-05-04 17:53 29.98817 -95.34840 104 ft 4 kts 280°
2026-05-04 17:53 29.98809 -95.34814 107 ft 4 kts 332°
2026-05-04 17:54 29.98801 -95.34811 107 ft 0 kts 360°
2026-05-04 18:12 29.98819 -95.34811 106 ft 5 kts
2026-05-04 18:12 29.98870 -95.34811 107 ft 9 kts
2026-05-04 18:13 29.98949 -95.34811 107 ft 13 kts 358°
2026-05-04 18:13 29.98994 -95.34888 107 ft 14 kts 272°
2026-05-04 18:13 29.98995 -95.35155 107 ft 19 kts 269°
2026-05-04 18:14 29.98995 -95.35320 107 ft 22 kts 270°
2026-05-04 18:14 29.98982 -95.35468 106 ft 13 kts 226°
2026-05-04 18:14 29.98904 -95.35511 107 ft 12 kts 220°
2026-05-04 18:15 29.98837 -95.35655 106 ft 5 kts 242°
2026-05-04 18:15 29.98832 -95.35666 107 ft 2 kts 242°
2026-05-04 18:15 29.98811 -95.35710 108 ft 10 kts 242°
2026-05-04 18:16 29.98733 -95.35751 109 ft 20 kts 161°
2026-05-04 18:16 29.98509 -95.35614 108 ft 64 kts 152°
2026-05-04 18:16 29.97941 -95.35265 109 ft 118 kts 152°
2026-05-04 18:17 29.96034 -95.34124 373 ft 172 kts 159°
2026-05-04 18:17 29.94867 -95.34044 949 ft 171 kts 200°
2026-05-04 18:17 29.93252 -95.36137 1663 ft 193 kts 229°
2026-05-04 18:18 29.92404 -95.37434 1801 ft 212 kts 229°
2026-05-04 18:18 29.91441 -95.38845 1952 ft 237 kts 229°
2026-05-04 18:18 29.90380 -95.40367 2475 ft 247 kts 229°
2026-05-04 18:18 29.89280 -95.41924 3186 ft 252 kts 228°
2026-05-04 18:19 29.87316 -95.45306 4755 ft 257 kts 238°
2026-05-04 18:19 29.86418 -95.47104 5472 ft 260 kts 238°
2026-05-04 18:19 29.85518 -95.48927 6186 ft 263 kts 239°
2026-05-04 18:20 29.84616 -95.50770 6886 ft 265 kts 241°
2026-05-04 18:20 29.83721 -95.52633 7575 ft 267 kts 242°
2026-05-04 18:20 29.83069 -95.54607 8174 ft 270 kts 260°
2026-05-04 18:20 29.83030 -95.56775 8787 ft 274 kts 279°
2026-05-04 18:21 29.83655 -95.58850 9446 ft 277 kts 298°
2026-05-04 18:21 29.84617 -95.60779 10121 ft 279 kts 299°
2026-05-04 18:21 29.85610 -95.62764 10370 ft 296 kts 299°
2026-05-04 18:21 29.86670 -95.64891 10479 ft 316 kts 299°
2026-05-04 18:22 29.87799 -95.67163 10629 ft 335 kts 299°
2026-05-04 18:22 29.88968 -95.69525 11040 ft 342 kts 298°
2026-05-04 18:22 29.90148 -95.71917 11610 ft 345 kts 298°
2026-05-04 18:22 29.91332 -95.74325 12227 ft 346 kts 298°
2026-05-04 18:23 29.92523 -95.76748 12873 ft 348 kts 298°
2026-05-04 18:23 29.93718 -95.79173 13488 ft 349 kts 298°
2026-05-04 18:23 29.94919 -95.81608 14078 ft 350 kts 298°
2026-05-04 18:23 29.96124 -95.84055 14616 ft 352 kts 298°
2026-05-04 18:24 29.97334 -95.86514 15138 ft 353 kts 298°
2026-05-04 18:24 29.98551 -95.88987 15669 ft 355 kts 298°
2026-05-04 18:24 29.99770 -95.91466 16197 ft 356 kts 298°
2026-05-04 18:24 30.00994 -95.93958 16701 ft 358 kts 298°
2026-05-04 18:25 30.02223 -95.96460 17171 ft 360 kts 298°
2026-05-04 18:25 30.03455 -95.98977 17637 ft 362 kts 298°
2026-05-04 18:25 30.04696 -96.01513 18073 ft 364 kts 298°
2026-05-04 18:25 30.05944 -96.04064 18477 ft 365 kts 298°
2026-05-04 18:26 30.06971 -96.06748 18860 ft 367 kts 289°
2026-05-04 18:26 30.07577 -96.09610 19236 ft 368 kts 281°
2026-05-04 18:26 30.08019 -96.12528 19635 ft 369 kts 281°
2026-05-04 18:26 30.08468 -96.15459 20029 ft 370 kts 281°
2026-05-04 18:27 30.08916 -96.18353 20430 ft 371 kts 282°
2026-05-04 18:27 30.09374 -96.21291 20834 ft 373 kts 282°
2026-05-04 18:27 30.09834 -96.24241 21231 ft 374 kts 282°
2026-05-04 18:27 30.10291 -96.27199 21634 ft 375 kts 282°
2026-05-04 18:28 30.10746 -96.30172 22013 ft 376 kts 282°
2026-05-04 18:28 30.11201 -96.33148 22400 ft 377 kts 282°
2026-05-04 18:28 30.11659 -96.36138 22784 ft 379 kts 282°
2026-05-04 18:28 30.12118 -96.39136 23190 ft 380 kts 282°
2026-05-04 18:29 30.12581 -96.42148 23539 ft 381 kts 282°
2026-05-04 18:29 30.13046 -96.45171 23839 ft 383 kts 282°
2026-05-04 18:29 30.13507 -96.48201 24149 ft 383 kts 282°
2026-05-04 18:29 30.13965 -96.51235 24473 ft 384 kts 282°
2026-05-04 18:30 30.14730 -96.56295 25018 ft 385 kts 282°
2026-05-04 18:30 30.15198 -96.59387 25356 ft 386 kts 282°
2026-05-04 18:30 30.15656 -96.62417 25688 ft 387 kts 282°
2026-05-04 18:31 30.16122 -96.65484 26015 ft 388 kts 282°
2026-05-04 18:31 30.16587 -96.68559 26346 ft 389 kts 282°
2026-05-04 18:31 30.17054 -96.71646 26673 ft 390 kts 282°
2026-05-04 18:31 30.17517 -96.74737 26981 ft 391 kts 282°
2026-05-04 18:32 30.17981 -96.77840 27275 ft 392 kts 282°
2026-05-04 18:32 30.18444 -96.80949 27585 ft 393 kts 282°
2026-05-04 18:32 30.18907 -96.84067 27878 ft 394 kts 282°
2026-05-04 18:32 30.19373 -96.87195 28147 ft 395 kts 282°
2026-05-04 18:33 30.19836 -96.90288 28415 ft 397 kts 282°
2026-05-04 18:33 30.20310 -96.93437 28690 ft 398 kts 282°
2026-05-04 18:33 30.20781 -96.96585 28964 ft 398 kts 282°
2026-05-04 18:33 30.21248 -96.99736 29377 ft 396 kts 282°
2026-05-04 18:34 30.21707 -97.02862 29837 ft 392 kts 282°
2026-05-04 18:34 30.22162 -97.05962 30233 ft 389 kts 282°
2026-05-04 18:34 30.22612 -97.09037 30554 ft 387 kts 283°
2026-05-04 18:34 30.23067 -97.12102 30857 ft 386 kts 283°
2026-05-04 18:35 30.23525 -97.15151 31074 ft 384 kts 283°
2026-05-04 18:35 30.23983 -97.18190 31381 ft 383 kts 283°
2026-05-04 18:35 30.24436 -97.21221 31686 ft 381 kts 283°
2026-05-04 18:35 30.24885 -97.24239 31993 ft 380 kts 283°
2026-05-04 18:36 30.25333 -97.27249 32301 ft 379 kts 283°
2026-05-04 18:36 30.25778 -97.30249 32626 ft 378 kts 283°
2026-05-04 18:36 30.26220 -97.33241 32936 ft 376 kts 283°
2026-05-04 18:36 30.26659 -97.36227 33228 ft 375 kts 283°
2026-05-04 18:37 30.27095 -97.39200 33520 ft 374 kts 283°
2026-05-04 18:37 30.27529 -97.42158 33816 ft 373 kts 283°
2026-05-04 18:37 30.27963 -97.45116 33949 ft 372 kts 283°
2026-05-04 18:38 30.28809 -97.50936 33970 ft 367 kts 282°
2026-05-04 18:38 30.29660 -97.56760 33976 ft 367 kts 283°